[[{"header":{"parameterUnit":"m.s-1","parameterCategory":1,"la1":30.2991,"la2":30.254,"lo1":-89.0895,"lo2":-89.0444,"dy":0.0017,"dx":0.0017,"nx":28,"ny":28,"refTime":"2024-08-14T09:00:00:Z","depth":0,"parameterNumber":2,"parameterNumberName":"U-component_of_WINDS"},"data":[0,0,0,0,0,0,0,0,0,0,0,0,0,0,0,0,0,0,0,0,0,0,0,0,0,0,0,0,0,0,0,0,0,0,0,0,0,0,0,0,0,0,0,0,0,0,0,0,0,0,0,0,0,0,0,0,0,0,1.0185,1.0185,0,1.0191,1.0191,1.0191,1.0078,1.0075,1.0072,1.0069,1.0082,1.0085,1.0089,0,0,0,0,0,0,0,0,0,0,0,0,0,1.0077,1.008,1.0185,1.0185,1.0185,1.0191,1.0191,1.0191,1.0079,1.0075,1.0071,1.0068,1.0081,1.0085,1.0089,0,0,0,0,0,0,0,0,0,0,0,0,0,1.0108,1.0081,1.0185,1.0129,1.0124,1.0191,1.0191,1.0192,1.008,1.0075,1.007,1.0066,1.008,1.0085,1.0089,1.0212,0,0,1.0104,1.0106,0,0,0,0,0,0,0,0,1.0107,1.0112,1.0137,1.0133,1.0128,1.0129,1.0158,1.0198,1.0081,1.0097,1.0069,1.0064,1.0102,1.0105,1.0116,1.0212,1.0213,1.0105,1.0107,1.011,1.0111,0,0,0,0,0,0,0,1.0105,1.0112,1.0187,1.0138,1.0132,1.0105,1.0104,1.0165,1.0126,1.0095,1.0087,1.0089,1.0099,1.0112,1.0116,1.0213,1.0104,1.0109,1.0112,1.0114,1.0408,1.0412,0,0,0,0,0,0,1.0109,1.011,1.0187,1.0188,1.0105,1.0111,1.011,1.0134,1.0124,1.0118,1.0093,1.0084,1.0106,1.011,1.0116,1.0258,1.0109,1.0114,1.0117,1.0403,1.0409,1.0414,0,0,0,0,0,0,1.0108,1.0117,1.0187,1.0147,1.0153,1.0117,1.0145,1.0136,1.0149,1.0123,1.0115,1.0114,1.0102,1.0109,1.0188,1.0257,1.0116,1.0121,1.0397,1.0405,1.0411,1.0544,0,0,0,0,0,0,1.0105,1.0117,1.0163,1.0149,1.0156,1.0259,1.0149,1.014,1.0157,1.0145,1.014,1.0135,1.0099,1.0181,1.0193,1.0261,1.0124,1.0391,1.04,1.0409,1.0534,1.0555,1.0574,0,0,0,0,0,1.0102,1.0202,1.0166,1.0176,1.0212,1.0263,1.0267,1.0222,1.0163,1.0209,1.0191,1.0135,1.0247,1.019,1.0202,1.0273,1.0386,1.0398,1.0408,1.0525,1.0551,1.0573,0,0,0,0,0,0,1.0229,1.0199,1.0159,1.0258,1.0263,1.0243,1.0301,1.0252,1.0276,1.0264,1.0209,1.0209,1.0297,1.0292,1.023,1.039,1.0306,1.032,1.0391,1.0415,1.0435,1.0436,1.0128,0,0,0,0,0,1.0268,1.031,1.0282,1.0372,1.0376,1.0338,1.0358,1.0322,1.0327,1.033,1.0318,1.0326,1.0362,1.0388,1.042,1.0531,1.0529,1.0585,1.0605,1.0622,1.0636,1.0694,1.0719,1.045,1.045,1.045,0,0,1.035,1.0339,1.037,1.0397,1.0397,1.0443,1.0341,1.0394,1.0428,1.0338,1.0412,1.0403,1.0408,1.0503,1.0545,1.0502,1.0708,1.0636,1.0649,1.0654,1.0708,1.0733,1.0756,1.0458,1.0456,1.0455,0,0,1.0524,1.0519,1.0593,1.0594,1.0594,1.0567,1.0585,1.0571,1.0562,1.0633,1.0566,1.0606,1.067,1.0676,1.0688,1.0859,1.0809,1.0871,1.0977,1.1034,1.1056,1.1074,1.1137,1.1159,1.0884,1.0884,1.0884,0,1.0628,1.0692,1.0638,1.0694,1.0708,1.0625,1.07,1.0704,1.0716,1.0728,1.0679,1.0756,1.0754,1.0849,1.089,1.0902,1.0921,1.0873,1.1056,1.1074,1.1091,1.115,1.1174,1.0892,1.0891,1.089,1.0889,0,1.082,1.0865,1.0925,1.0935,1.0955,1.1021,1.0977,1.1004,1.0965,1.0944,1.1018,1.101,1.1039,1.1058,1.1023,1.1148,1.1122,1.1066,1.0981,1.1125,1.118,1.1202,1.0903,1.09,1.0898,1.0896,0,0,1.108,1.1054,1.1078,1.1081,1.1072,1.1108,1.1169,1.1194,1.1219,1.1228,1.1279,1.1333,1.128,1.1293,1.1256,1.1306,1.1443,1.1243,1.1242,1.1282,1.1582,1.1627,1.1654,1.1407,1.1411,1.1414,1.1582,0,1.1249,1.1351,1.1302,1.1411,1.1452,1.1371,1.1424,1.1426,1.1406,1.1439,1.1417,1.1457,1.1383,1.1391,1.1435,1.1417,1.1503,1.1403,1.1456,1.1459,1.1461,1.1682,1.173,1.1889,1.1603,1.1606,1.1609,0,1.1463,1.1478,1.1591,1.1572,1.1588,1.1637,1.1655,1.1687,1.1686,1.1668,1.1681,1.1631,1.1691,1.1603,1.1685,1.1618,1.1636,1.163,1.1635,1.1641,1.1546,1.1697,1.1939,1.1964,1.1642,1.1639,1.1637,0,1.1644,1.1692,1.1765,1.177,1.175,1.1786,1.178,1.1774,1.1792,1.1807,1.1818,1.1842,1.1856,1.1875,1.1834,1.1774,1.1921,1.183,1.191,1.1912,1.1949,1.1948,1.22,1.1955,1.1955,1.1954,1.1954,0,1.1841,1.1914,1.1845,1.1891,1.1969,1.191,1.199,1.1975,1.197,1.2011,1.1942,1.1983,1.1924,1.1959,1.1927,1.2,1.2006,1.1994,1.1986,1.2003,1.2005,1.2017,1.2006,1.1961,1.1959,1.1958,1.1957,0,1.2058,1.2015,1.209,1.2063,1.2058,1.2117,1.2095,1.2136,1.2109,1.2163,1.2172,1.2131,1.2169,1.2127,1.2163,1.214,1.224,1.2213,1.224,1.2234,1.2316,1.231,1.2588,1.2622,1.2353,1.2356,1.2358,0,1.2189,1.2242,1.222,1.2241,1.2238,1.2274,1.2291,1.2234,1.2254,1.2255,1.2296,1.2327,1.2349,1.2413,1.2388,1.2414,1.2389,1.2484,1.2393,1.2408,1.2394,1.2392,1.2398,1.2505,1.2508,1.2511,1.2513,0,1.2426,1.2401,1.2427,1.2444,1.2465,1.2477,1.2483,1.2505,1.2445,1.2472,1.2507,1.2524,1.2558,1.259,1.2608,1.2602,1.255,1.254,1.2561,1.2581,1.2595,1.2591,1.2294,1.2536,1.2534,1.2532,1.2531,1.253,1.2606,1.2649,1.2639,1.2669,1.2667,1.2674,1.2711,1.2686,1.2715,1.2736,1.27,1.2746,1.2741,1.2759,1.2759,1.2795,1.2755,1.2784,1.2792,1.2801,1.2814,1.2586,1.2798,1.2797,1.2796,1.2796,1.2795,0,1.2842,1.283,1.2858,1.2867,1.2891,1.2832,1.2836,1.286,1.29,1.2899,1.2921,1.2962,1.2991,1.2966,1.2991,1.3024,1.3,1.3033,1.3032,1.3032,1.2848,1.2829,1.3052,1.3052,1.3052,1.3052,1.3052,1.3051,1.2968,1.3037,1.301,1.3078,1.3065,1.3108,1.3115,1.312,1.3119,1.3167,1.319,1.3172,1.3161,1.3184,1.3208,1.32,1.3214,1.3256,1.324,1.307,1.3045,1.3021,1.3003,1.3259,1.3259,1.3421,1.3423,1.3424]},{"header":{"parameterUnit":"m.s-1","parameterCategory":1,"la1":30.2991,"la2":30.254,"lo1":-89.0895,"lo2":-89.0444,"dy":0.0017,"dx":0.0017,"nx":28,"ny":28,"refTime":"2024-08-14T09:00:00:Z","depth":0,"parameterNumber":3,"parameterNumberName":"V-component_of_WINDS"},"data":[0,0,0,0,0,0,0,0,0,0,0,0,0,0,0,0,0,0,0,0,0,0,0,0,0,0,0,0,0,0,0,0,0,0,0,0,0,0,0,0,0,0,0,0,0,0,0,0,0,0,0,0,0,0,0,0,0,0,1.6668,1.6668,0,1.6704,1.6704,1.6705,1.6676,1.6675,1.6674,1.6673,1.6707,1.6709,1.6711,0,0,0,0,0,0,0,0,0,0,0,0,0,1.657,1.6572,1.6668,1.6668,1.6669,1.6704,1.6704,1.6705,1.6676,1.6675,1.6674,1.6672,1.6706,1.6709,1.6711,0,0,0,0,0,0,0,0,0,0,0,0,0,1.661,1.6573,1.6668,1.6659,1.6658,1.6704,1.6704,1.6705,1.6677,1.6675,1.6673,1.6671,1.6705,1.6708,1.6711,1.6766,0,0,1.6721,1.6722,0,0,0,0,0,0,0,0,1.6608,1.6614,1.666,1.6659,1.6659,1.6684,1.6682,1.6725,1.6677,1.667,1.6673,1.6671,1.67,1.6704,1.6714,1.6768,1.6769,1.6721,1.6723,1.6724,1.6725,0,0,0,0,0,0,0,1.6605,1.6612,1.6682,1.666,1.666,1.6652,1.6655,1.669,1.6695,1.667,1.6668,1.6673,1.67,1.6712,1.6715,1.677,1.6721,1.6724,1.6725,1.6727,1.6868,1.687,0,0,0,0,0,0,1.6604,1.661,1.6681,1.6683,1.6629,1.6655,1.6659,1.6678,1.6694,1.6695,1.6675,1.6672,1.6707,1.6711,1.6716,1.678,1.6724,1.6727,1.6729,1.6866,1.6869,1.6871,0,0,0,0,0,0,1.6602,1.661,1.6679,1.6646,1.6654,1.6659,1.668,1.6679,1.6691,1.6698,1.6698,1.6686,1.6706,1.6712,1.6754,1.6781,1.6728,1.6731,1.6864,1.6867,1.687,1.691,0,0,0,0,0,0,1.6599,1.661,1.6632,1.6647,1.6656,1.6718,1.6681,1.6681,1.6697,1.6693,1.6708,1.6709,1.6705,1.6749,1.6757,1.6784,1.6733,1.6861,1.6865,1.6869,1.6906,1.6913,1.692,0,0,0,0,0,1.6596,1.6641,1.6633,1.6642,1.6684,1.6719,1.6724,1.672,1.6699,1.672,1.6724,1.6709,1.6777,1.6754,1.6762,1.6791,1.686,1.6864,1.6868,1.6903,1.6912,1.692,0,0,0,0,0,0,1.6629,1.6643,1.6634,1.6686,1.6702,1.6714,1.6741,1.673,1.6751,1.6747,1.6739,1.6743,1.6787,1.6793,1.6767,1.6844,1.6815,1.6821,1.6838,1.6847,1.6854,1.6851,1.6736,0,0,0,0,0,1.6642,1.6671,1.6682,1.6727,1.6735,1.6737,1.6752,1.6747,1.6763,1.6769,1.6776,1.6791,1.6815,1.6832,1.6855,1.6907,1.6909,1.693,1.6938,1.6943,1.6948,1.6975,1.6984,1.6885,1.6885,1.6885,0,0,1.667,1.6682,1.67,1.6733,1.6745,1.6773,1.6743,1.6775,1.6795,1.6773,1.6813,1.6819,1.6835,1.6882,1.6903,1.6888,1.6976,1.6949,1.6953,1.6955,1.698,1.6989,1.6998,1.6888,1.6887,1.6887,0,0,1.6735,1.6748,1.6786,1.6798,1.6816,1.6817,1.6826,1.684,1.6843,1.6883,1.6867,1.6891,1.6934,1.6945,1.6957,1.7025,1.7011,1.7033,1.707,1.7095,1.7103,1.711,1.7133,1.7141,1.7038,1.7038,1.7038,0,1.6767,1.6811,1.6806,1.6839,1.6853,1.6836,1.6873,1.6885,1.6909,1.6919,1.6903,1.6955,1.6965,1.7013,1.703,1.704,1.7049,1.7031,1.7103,1.7109,1.7116,1.7137,1.7146,1.7041,1.704,1.704,1.704,0,1.6849,1.6879,1.6907,1.6932,1.6949,1.6984,1.6983,1.7001,1.6995,1.6997,1.7037,1.7048,1.7072,1.7083,1.7077,1.713,1.7121,1.7104,1.7074,1.7128,1.7148,1.7156,1.7044,1.7043,1.7043,1.7042,0,0,1.6936,1.6957,1.6967,1.6977,1.6995,1.7018,1.7051,1.7076,1.7091,1.7108,1.7134,1.7171,1.7155,1.7168,1.7163,1.7185,1.7237,1.7165,1.7165,1.7177,1.7294,1.7306,1.7316,1.7228,1.7229,1.7231,1.7292,0,1.7001,1.706,1.7056,1.7111,1.7138,1.7121,1.715,1.7163,1.7166,1.7188,1.719,1.7216,1.7194,1.7201,1.7223,1.7226,1.726,1.7222,1.7251,1.7252,1.7246,1.7326,1.7339,1.7397,1.73,1.7302,1.7303,0,1.7084,1.7104,1.7162,1.7175,1.7186,1.7212,1.7233,1.7256,1.727,1.727,1.7284,1.7275,1.7307,1.7277,1.732,1.7294,1.7306,1.7309,1.7311,1.7313,1.728,1.7329,1.7415,1.7424,1.7315,1.7314,1.7313,0,1.714,1.7182,1.7221,1.7231,1.7247,1.7265,1.7273,1.7285,1.73,1.7318,1.7327,1.7349,1.736,1.7377,1.7373,1.7352,1.7416,1.7387,1.7416,1.7416,1.7429,1.7428,1.7517,1.7439,1.7439,1.7439,1.7439,0,1.7212,1.7247,1.7246,1.7271,1.7309,1.7304,1.7342,1.7347,1.7358,1.7382,1.7369,1.7391,1.7385,1.7407,1.7404,1.7439,1.7445,1.7445,1.7443,1.7445,1.7445,1.7452,1.7447,1.7441,1.744,1.744,1.744,0,1.728,1.7281,1.7323,1.7335,1.7339,1.7366,1.7376,1.7398,1.7399,1.743,1.7436,1.7438,1.7463,1.7461,1.7489,1.7487,1.753,1.7524,1.7525,1.7523,1.7552,1.7548,1.7648,1.7659,1.7575,1.7576,1.7576,0,1.7325,1.7352,1.7367,1.7383,1.7391,1.7416,1.7431,1.7426,1.7442,1.7459,1.7479,1.7503,1.7521,1.7561,1.7564,1.7585,1.7579,1.7612,1.7582,1.7583,1.7578,1.7576,1.7577,1.7618,1.7619,1.762,1.762,0,1.7405,1.7404,1.7426,1.7448,1.7466,1.7483,1.7498,1.7511,1.7508,1.7526,1.7551,1.7566,1.7594,1.7617,1.7637,1.7643,1.7631,1.763,1.7638,1.7639,1.7638,1.7637,1.754,1.7628,1.7627,1.7626,1.7626,1.7626,1.7462,1.7485,1.7498,1.7523,1.7534,1.7548,1.7569,1.7573,1.7595,1.7618,1.7614,1.7642,1.7654,1.7679,1.7687,1.7708,1.7696,1.7707,1.771,1.7712,1.7715,1.7636,1.7712,1.7712,1.7712,1.7711,1.7711,0,1.7539,1.7547,1.757,1.7592,1.7611,1.7599,1.7615,1.7631,1.7656,1.7669,1.7688,1.7716,1.7738,1.7743,1.7764,1.778,1.7774,1.7785,1.7783,1.7784,1.7725,1.7716,1.7789,1.7789,1.7789,1.7789,1.7789,1.7789,1.7582,1.7619,1.7619,1.7661,1.7668,1.7696,1.7706,1.7719,1.7729,1.7761,1.778,1.7783,1.7792,1.7813,1.7833,1.7833,1.7841,1.7854,1.7852,1.7797,1.7789,1.7781,1.7772,1.7856,1.7856,1.7909,1.7909,1.791]}]]